Shell Fueler — WZW7217 — position and weather

sailwx.info

Track history (hours):
 
Tides and Currents Weather Stations Pressure Air Temp Water Temp Dewpoint Dewpoint Depression Visibility Wind Speed Wind Dir Waves Ship Positions

Shell Fueler

Owner: JOHN W STONE OIL DIST .LLC, GRETNA, LA. More information available from US FCC via Universal Licensing System and Coast Guard Vessel Documentation Center.

Last reported at 2014-Oct-30 22:10 UTC. Time now 2014-Oct-31 09:17 UTC.
Position N 29°56' W 090°04'.

Length 21 m; draft 2.5 m.

Type: Towing. MMSI: 366954210.

Date/timePositionNaut miles runAvg speedWind from/ knotsBaromVisibWave heightAir tempDewpointWater temp
2014-Oct-30 22:10N 29°56' W 090°04'2 0.2
2014-Oct-30 12:33N 29°57' W 090°03'2 1.8
2014-Oct-30 11:33N 29°56' W 090°04'0 0.1
2014-Oct-30 10:30N 29°55' W 090°04'0 0.0
2014-Oct-30 09:33N 29°55' W 090°04'0 0.0
2014-Oct-30 08:33N 29°55' W 090°04'0 0.0
2014-Oct-30 07:33N 29°55' W 090°04'0 0.0
2014-Oct-30 06:32N 29°55' W 090°04'0 0.1
2014-Oct-30 05:33N 29°56' W 090°04'0 0.2
2014-Oct-30 04:33N 29°55' W 090°04'0 0.0
2014-Oct-30 03:32N 29°55' W 090°04'0 0.0
2014-Oct-30 02:31N 29°55' W 090°04'0 0.0
2014-Oct-30 01:32N 29°55' W 090°04'0 0.0
2014-Oct-30 00:33N 29°55' W 090°04'0 0.0
2014-Oct-29 23:33N 29°55' W 090°04'1 0.7
2014-Oct-29 22:07N 29°56' W 090°03'28 0.5
2014-Oct-27 19:25N 29°34' W 090°23'27 1.2
2014-Oct-26 21:17N 29°55' W 090°04'0 0.0
2014-Oct-26 15:09N 29°55' W 090°04'0 0.1
2014-Oct-26 14:32N 29°55' W 090°04'0 0.0
2014-Oct-26 13:23N 29°55' W 090°04'0 0.0
2014-Oct-26 12:32N 29°55' W 090°04'0 0.1
2014-Oct-26 11:24N 29°55' W 090°04'0 0.0
2014-Oct-26 10:20N 29°55' W 090°04'0 0.0
2014-Oct-26 09:33N 29°55' W 090°04'0 0.0
2014-Oct-26 08:33N 29°55' W 090°04'0 0.1
2014-Oct-26 07:33N 29°55' W 090°04'0 0.0
2014-Oct-26 06:33N 29°55' W 090°04'0 0.0
2014-Oct-26 05:33N 29°55' W 090°04'0 0.0
2014-Oct-26 04:33N 29°55' W 090°04'0 0.0
2014-Oct-26 03:31N 29°55' W 090°04'0 0.0
2014-Oct-26 02:30N 29°55' W 090°04'0 0.0
2014-Oct-26 01:32N 29°55' W 090°04'33 2.5
2014-Oct-25 12:33N 30°02' W 090°41'10 4.8
2014-Oct-25 10:27N 30°03' W 090°29'4 4.4
2014-Oct-25 09:27N 29°60' W 090°25'16 4.1
2014-Oct-25 05:32N 29°55' W 090°08'4 3.6
2014-Oct-25 04:33N 29°56' W 090°04'0 0.0
2014-Oct-25 03:33N 29°56' W 090°04'0 0.0
2014-Oct-25 02:32N 29°56' W 090°04'0 0.0
2014-Oct-25 01:32N 29°56' W 090°04'0 0.4
2014-Oct-25 00:34N 29°56' W 090°03'0 0.3
2014-Oct-24 23:33N 29°56' W 090°04'0 0.0
2014-Oct-24 22:33N 29°56' W 090°04'0 0.0
2014-Oct-24 21:33N 29°56' W 090°04'0 0.0
2014-Oct-24 20:33N 29°56' W 090°04'0 0.0
2014-Oct-24 19:30N 29°56' W 090°04'0 0.0
2014-Oct-24 18:30N 29°56' W 090°04'0 0.0
2014-Oct-24 11:03N 29°56' W 090°04'1 1.3
2014-Oct-24 10:29N 29°56' W 090°03'2 0.3
2014-Oct-24 01:23N 29°57' W 090°01'3 3.4
2014-Oct-24 00:34N 29°56' W 090°04'0 0.1
2014-Oct-23 23:32N 29°56' W 090°04'0 0.3
2014-Oct-23 22:33N 29°55' W 090°04'0 0.2
2014-Oct-23 21:32N 29°56' W 090°04'0 0.0
2014-Oct-23 04:33N 29°56' W 090°04'0 0.4
2014-Oct-23 03:33N 29°55' W 090°04'0 0.3
2014-Oct-23 02:30N 29°56' W 090°04'0 0.0
2014-Oct-23 01:33N 29°56' W 090°04'0 0.3
2014-Oct-23 00:33N 29°56' W 090°03'0 0.3
2014-Oct-22 23:31N 29°56' W 090°04'0 0.1
2014-Oct-22 22:33N 29°56' W 090°04'0 0.1
2014-Oct-22 21:30N 29°56' W 090°04'0 0.0
2014-Oct-22 20:32N 29°56' W 090°04'0 0.1
2014-Oct-22 19:33N 29°55' W 090°04'0 0.4
2014-Oct-22 18:30N 29°56' W 090°03'0 0.5
2014-Oct-22 17:27N 29°55' W 090°04'0 0.0
2014-Oct-22 13:07N 29°55' W 090°04'0 0.0
2014-Oct-22 12:32N 29°55' W 090°04'3 0.1
2014-Oct-21 12:13N 29°55' W 090°06'3 1.5
2014-Oct-21 10:31N 29°55' W 090°04'0 0.0
2014-Oct-21 05:26N 29°56' W 090°04'  
Track history (hours):
 
Tides and Currents Weather Stations Pressure Air Temp Water Temp Dewpoint Dewpoint Depression Visibility Wind Speed Wind Dir Waves Ship Positions

Shell Fueler

Owner: JOHN W STONE OIL DIST .LLC, GRETNA, LA. More information available from US FCC via Universal Licensing System and Coast Guard Vessel Documentation Center.

Last reported at 2014-Oct-30 22:10 UTC. Time now 2014-Oct-31 09:17 UTC.
Position N 29°56' W 090°04'.

Length 21 m; draft 2.5 m.

Type: Towing. MMSI: 366954210.

Date/timePositionNaut miles runAvg speedWind from/ knotsBaromVisibWave heightAir tempDewpointWater temp
2014-Oct-30 22:10N 29°56' W 090°04'2 0.2
2014-Oct-30 12:33N 29°57' W 090°03'2 1.8
2014-Oct-30 11:33N 29°56' W 090°04'0 0.1
2014-Oct-30 10:30N 29°55' W 090°04'0 0.0
2014-Oct-30 09:33N 29°55' W 090°04'0 0.0
2014-Oct-30 08:33N 29°55' W 090°04'0 0.0
2014-Oct-30 07:33N 29°55' W 090°04'0 0.0
2014-Oct-30 06:32N 29°55' W 090°04'0 0.1
2014-Oct-30 05:33N 29°56' W 090°04'0 0.2
2014-Oct-30 04:33N 29°55' W 090°04'0 0.0
2014-Oct-30 03:32N 29°55' W 090°04'0 0.0
2014-Oct-30 02:31N 29°55' W 090°04'0 0.0
2014-Oct-30 01:32N 29°55' W 090°04'0 0.0
2014-Oct-30 00:33N 29°55' W 090°04'0 0.0
2014-Oct-29 23:33N 29°55' W 090°04'1 0.7
2014-Oct-29 22:07N 29°56' W 090°03'28 0.5
2014-Oct-27 19:25N 29°34' W 090°23'27 1.2
2014-Oct-26 21:17N 29°55' W 090°04'0 0.0
2014-Oct-26 15:09N 29°55' W 090°04'0 0.1
2014-Oct-26 14:32N 29°55' W 090°04'0 0.0
2014-Oct-26 13:23N 29°55' W 090°04'0 0.0
2014-Oct-26 12:32N 29°55' W 090°04'0 0.1
2014-Oct-26 11:24N 29°55' W 090°04'0 0.0
2014-Oct-26 10:20N 29°55' W 090°04'0 0.0
2014-Oct-26 09:33N 29°55' W 090°04'0 0.0
2014-Oct-26 08:33N 29°55' W 090°04'0 0.1
2014-Oct-26 07:33N 29°55' W 090°04'0 0.0
2014-Oct-26 06:33N 29°55' W 090°04'0 0.0
2014-Oct-26 05:33N 29°55' W 090°04'0 0.0
2014-Oct-26 04:33N 29°55' W 090°04'0 0.0
2014-Oct-26 03:31N 29°55' W 090°04'0 0.0
2014-Oct-26 02:30N 29°55' W 090°04'0 0.0
2014-Oct-26 01:32N 29°55' W 090°04'33 2.5
2014-Oct-25 12:33N 30°02' W 090°41'10 4.8
2014-Oct-25 10:27N 30°03' W 090°29'4 4.4
2014-Oct-25 09:27N 29°60' W 090°25'16 4.1
2014-Oct-25 05:32N 29°55' W 090°08'4 3.6
2014-Oct-25 04:33N 29°56' W 090°04'0 0.0
2014-Oct-25 03:33N 29°56' W 090°04'0 0.0
2014-Oct-25 02:32N 29°56' W 090°04'0 0.0
2014-Oct-25 01:32N 29°56' W 090°04'0 0.4
2014-Oct-25 00:34N 29°56' W 090°03'0 0.3
2014-Oct-24 23:33N 29°56' W 090°04'0 0.0
2014-Oct-24 22:33N 29°56' W 090°04'0 0.0
2014-Oct-24 21:33N 29°56' W 090°04'0 0.0
2014-Oct-24 20:33N 29°56' W 090°04'0 0.0
2014-Oct-24 19:30N 29°56' W 090°04'0 0.0
2014-Oct-24 18:30N 29°56' W 090°04'0 0.0
2014-Oct-24 11:03N 29°56' W 090°04'1 1.3
2014-Oct-24 10:29N 29°56' W 090°03'2 0.3
2014-Oct-24 01:23N 29°57' W 090°01'3 3.4
2014-Oct-24 00:34N 29°56' W 090°04'0 0.1
2014-Oct-23 23:32N 29°56' W 090°04'0 0.3
2014-Oct-23 22:33N 29°55' W 090°04'0 0.2
2014-Oct-23 21:32N 29°56' W 090°04'0 0.0
2014-Oct-23 04:33N 29°56' W 090°04'0 0.4
2014-Oct-23 03:33N 29°55' W 090°04'0 0.3
2014-Oct-23 02:30N 29°56' W 090°04'0 0.0
2014-Oct-23 01:33N 29°56' W 090°04'0 0.3
2014-Oct-23 00:33N 29°56' W 090°03'0 0.3
2014-Oct-22 23:31N 29°56' W 090°04'0 0.1
2014-Oct-22 22:33N 29°56' W 090°04'0 0.1
2014-Oct-22 21:30N 29°56' W 090°04'0 0.0
2014-Oct-22 20:32N 29°56' W 090°04'0 0.1
2014-Oct-22 19:33N 29°55' W 090°04'0 0.4
2014-Oct-22 18:30N 29°56' W 090°03'0 0.5
2014-Oct-22 17:27N 29°55' W 090°04'0 0.0
2014-Oct-22 13:07N 29°55' W 090°04'0 0.0
2014-Oct-22 12:32N 29°55' W 090°04'3 0.1
2014-Oct-21 12:13N 29°55' W 090°06'3 1.5
2014-Oct-21 10:31N 29°55' W 090°04'0 0.0
2014-Oct-21 05:26N 29°56' W 090°04'  

Dump ship's entire track history